#timestamp,LO_Frequency,Hit,StdDev 
1581199815.3,286047007.3,P
1581199835.2,286047007.1,P
1581199855.9,286047007.0,P
1581199875.7,286047007.2,Y
1581199895.6,286046998.9,P
1581199915.4,286046998.7,N
1581199935.2,286046999.3,N
1581199955.1,286046999.0,N
1581199956.0,286046999.0,N
1581199975.8,286046998.7,N
1581199995.7,286046998.3,N
1581200015.5,286046998.3,N
1581200035.3,286046998.2,N
1581200055.2,286046998.2,N
1581200075.0,286047000.2,N
1581200075.9,286047000.2,N
1581200095.7,286047000.2,N
1581200115.6,286047002.2,N
1581200135.4,286047002.2,N
1581200155.3,286047001.7,N
1581200175.1,286047004.4,N
1581200176.0,286047004.4,N
1581200195.8,286047003.9,N
1581200215.7,286047004.3,N
1581200235.5,286047003.9,N
1581200255.3,286047001.3,N
1581200275.2,286047001.4,N
1581200295.0,286047005.4,N
1581200295.9,286047005.4,N
1581200315.8,286047007.3,N
1581200335.6,286047006.5,N
1581200355.4,286047006.2,N
1581200375.3,286047006.2,N
1581200395.1,286047008.3,N
1581200415.8,286047006.1,N
1581200435.7,286047006.2,N
1581200455.5,286047006.5,N
1581200475.4,286047008.5,N
1581200495.2,286047008.6,N
1581200515.0,286047007.9,N
1581200515.9,286047007.9,N
1581200535.8,286047009.2,N
1581200555.6,286047008.1,N
1581200575.4,286047010.1,Y
1581200595.3,286047005.8,P
1581200615.1,286047003.5,P
1581200635.9,286047005.1,P
1581200655.7,286047007.4,Y
1581200675.5,286046999.8,P
1581200695.4,286047000.3,N
1581200715.2,286047000.3,N
1581200735.0,286047002.8,N
1581200736.0,286047002.8,N
1581200755.8,286047002.7,N
1581200775.6,286047001.5,N
1581200795.5,286047003.6,N
1581200815.3,286047003.5,N
1581200835.1,286047002.9,N
1581200855.9,286047007.5,Y
1581200875.7,286047005.1,P
1581200895.6,286047005.7,P
1581200915.4,286047005.8,P
1581200935.2,286047003.4,N
1581200955.1,286047001.4,N
1581200956.0,286047001.4,N
1581200975.8,286047003.8,N
1581200995.6,286047004.4,N
1581201015.5,286047001.7,N
1581201035.3,286047001.7,N
1581201055.2,286047001.4,N
1581201075.9,286047001.9,N
1581201095.7,286047002.6,N
1581201115.6,286047002.2,N
1581201135.4,286047001.6,N
1581201155.2,286047002.4,N
1581201175.1,286047002.3,N
1581201176.0,286047002.3,N
1581201195.8,286047002.7,N
1581201215.7,286047002.1,N
1581201235.5,286047002.7,N
1581201255.3,286047002.8,N
1581201275.2,286047000.3,N
1581201295.9,286047002.8,N
1581201315.7,286047000.1,N
1581201335.6,286047000.2,N
1581201355.4,286046999.8,N
1581201375.3,286047000.1,N
1581201395.1,286047000.5,N
1581201396.0,286047000.5,N
1581201415.8,286046998.5,N
1581201435.7,286047001.2,N
1581201455.5,286047001.2,N
1581201475.3,286046998.5,N
1581201495.2,286046998.3,N
1581201515.0,286046998.3,N
1581201515.9,286046998.3,N
1581201535.8,286047001.2,N
1581201555.6,286047001.0,N
1581201575.4,286047000.7,N
1581201595.3,286047000.9,N
1581201615.1,286047001.0,N
1581201635.8,286047001.0,N
1581201655.7,286047000.4,N
1581201675.5,286047000.9,N
1581201695.4,286046998.1,N
1581201715.2,286047000.3,N
1581201735.0,286047000.7,N
1581201735.9,286047000.7,N
1581201755.8,286046998.6,N
1581201775.6,286046998.6,N
1581201795.4,286046998.1,N
1581201815.3,286046998.5,N
1581201835.1,286046998.8,N
1581201855.9,286046998.3,N
1581201875.7,286047000.7,N
1581201895.5,286046998.7,N
1581201915.4,286046999.4,N
1581201935.2,286046998.6,N
1581201955.0,286046998.8,N
1581201955.9,286046998.8,N
1581201975.8,286046999.1,N
1581201995.6,286046999.3,N
1581202015.5,286046998.2,N
1581202035.3,286046998.2,N
1581202055.1,286047000.7,N
1581202075.9,286047001.2,N
1581202095.7,286046998.5,N
1581202115.5,286046998.4,N
1581202135.4,286047000.8,N
1581202155.2,286046998.6,N
1581202175.1,286047001.1,N
1581202176.0,286047001.1,N
1581202195.8,286046998.6,N
1581202215.6,286046998.5,N
1581202235.5,286046999.5,N
1581202255.3,286047000.6,N
1581202275.1,286046998.5,N
1581202295.9,286046998.5,N
1581202315.7,286046999.5,N
1581202335.6,286046999.4,N
1581202355.4,286046996.6,Y
1581202375.2,286046998.3,P
1581202395.1,286046999.5,N
1581202396.0,286046999.5,N
1581202415.8,286046996.5,Y
1581202435.7,286046996.5,P
1581202455.5,286046997.0,N
1581202475.3,286046999.1,N
1581202495.2,286046998.7,N
1581202515.0,286046999.0,N
1581202515